Location: Bourguignon
(49.5441°N, 3.1585°E)
Time: 10:34:06
(UTC+00:00)

Helios 1A - Pass Details

Date: 15 May 2026
Orbit: 540 x 559 km, 98.2° (Epoch: 8 June)

Event Time Altitude Azimuth Distance (km) Brightness Sun altitude
Rises 22:11:13 0° 16° (NNE) 2,716 7.2 -18.4°
Reaches altitude 10° 22:13:21 10° 19° (NNE) 1,817 6.1 -18.5°
Maximum altitude 22:17:16 69° 102° (ESE) 585 2.7 -18.8°
Enters shadow 22:18:08 50° 165° (SSE) 698 2.9 -18.8°
